Terminal Aerodrome Forecast
Issued by NWS Wakefield, VA

Home | Current Version | Previous Version | Text Only | Print | Product List | Glossary On
Versions: 1 2 3 4 5 6 7 8 9 10 11 12 13 14 15 16 17 18 19 20 21 22 23
000
FTUS41 KAKQ 021100
TAFRIC
TAF
KRIC 021123Z 0212/0312 VRB03KT 5SM BR FEW020 BKN035 BKN090
     FM021400 VRB05KT P6SM SCT030 BKN050
     FM030900 00000KT 5SM BR SCT004 BKN030=

USA.gov is the U.S. government's official web portal to all federal, state and local government web resources and services.